QPF
0.00 0.01 0.07 0.05 0.18 0.14 0.06 0.02 0.01 0.00 0.00 0.00 0.00 0.00 0.00 0.00 0.00 0.00 0.00 0.00 0.00 0.00 0.00 0.00 0.08 0.16 0.18 0.07 0.00 0.00 0.00 0.00 0.00 0.00 0.00 0.00 0.00 0.00 0.01 0.01 0.01 0.00 0.00
0.00 0.00 0.00 0.04 0.08 0.06 0.13 0.05 0.05 0.01 0.00 0.00 0.00 0.00 0.00 0.00 0.00 0.00 0.00 0.02 0.09 0.11 0.05 0.06 0.02 0.06 0.02 0.00 0.00 0.00 0.01 0.01 0.00 0.00 0.00 0.00 0.00 0.00 0.04 0.04 0.03 0.00 0.00
0.00 0.01 0.00 0.07 0.06 0.04 0.09 0.07 0.09 0.03 0.00 0.00 0.00 0.00 0.00 0.00 0.01 0.03 0.01 0.03 0.04 0.11 0.06 0.01 0.00 0.00 0.00 0.00 0.00 0.00 0.00 0.00 0.00 0.00 0.01 0.00 0.00 0.00 0.00 0.00 0.00 0.00 0.00
0.00 0.01 0.00 0.10 0.13 0.19 0.16 0.03 0.01 0.03 0.00 0.00 0.00 0.00 0.02 0.07 0.10 0.01 0.02 0.06 0.05 0.01 0.00 0.00 0.00 0.00 0.00 0.00 0.01 0.01 0.02 0.01 0.00 0.00 0.00 0.00 0.00 0.00 0.02 0.00 0.00 0.00 0.00
0.01 0.01 0.00 0.10 0.16 0.15 0.07 0.08 0.01 0.01 0.00 0.00 0.00 0.02 0.03 0.03 0.02 0.03 0.05 0.02 0.00 0.00 0.00 0.00 0.00 0.01 0.00 0.00 0.02 0.06 0.01 0.00 0.00 0.00 0.00 0.00 0.00 0.00 0.00 0.01 0.01 0.00 0.00
0.01 0.01 0.00 0.03 0.07 0.05 0.06 0.08 0.03 0.00 0.00 0.01 0.05 0.07 0.15 0.16 0.09 0.10 0.02 0.05 0.07 0.00 0.00 0.00 0.00 0.00 0.00 0.00 0.00 0.00 0.00 0.00 0.00 0.00 0.00 0.00 0.00 0.00 0.00 0.00 0.02 0.00 0.00
0.02 0.01 0.00 0.07 0.12 0.04 0.02 0.04 0.03 0.00 0.02 0.05 0.07 0.16 0.20 0.05 0.00 0.00 0.01 0.01 0.06 0.00 0.00 0.00 0.00 0.00 0.00 0.00 0.00 0.00 0.00 0.00 0.00 0.00 0.00 0.00 0.00 0.00 0.01 0.01 0.00 0.00 0.00
0.01 0.01 0.00 0.05 0.10 0.12 0.07 0.03 0.02 0.00 0.00 0.04 0.04 0.05 0.01 0.00 0.00 0.00 0.00 0.00 0.01 0.00 0.00 0.00 0.00 0.00 0.00 0.00 0.00 0.00 0.00 0.00 0.00 0.00 0.00 0.00 0.00 0.00 0.00 0.00 0.00 0.00 0.01
0.00 0.00 0.00 0.00 0.02 0.06 0.12 0.11 0.06 0.02 0.00 0.01 0.04 0.03 0.00 0.00 0.00 0.00 0.01 0.00 0.00 0.00 0.00 0.00 0.00 0.00 0.00 0.00 0.00 0.00 0.00 0.00 0.00 0.00 0.00 0.00 0.00 0.00 0.00 0.00 0.00 0.00 0.00
0.01 0.00 0.00 0.00 0.03 0.05 0.04 0.06 0.06 0.03 0.00 0.00 0.00 0.00 0.00 0.00 0.00 0.00 0.02 0.01 0.00 0.00 0.00 0.00 0.00 0.00 0.00 0.00 0.00 0.00 0.00 0.00 0.00 0.00 0.00 0.00 0.00 0.00 0.00 0.00 0.00 0.00 0.00
0.00 0.01 0.01 0.01 0.07 0.09 0.03 0.01 0.01 0.01 0.00 0.00 0.00 0.00 0.00 0.00 0.00 0.00 0.01 0.00 0.00 0.00 0.00 0.00 0.00 0.00 0.00 0.00 0.00 0.00 0.00 0.00 0.00 0.00 0.00 0.00 0.00 0.00 0.00 0.00 0.00 0.00 0.00
0.00 0.00 0.00 0.01 0.01 0.01 0.00 0.00 0.00 0.00 0.00 0.00 0.00 0.00 0.00 0.00 0.00 0.00 0.00 0.00 0.00 0.00 0.00 0.00 0.00 0.00 0.00 0.00 0.00 0.00 0.00 0.01 0.00 0.00 0.00 0.00 0.00 0.00 0.00 0.00 0.00 0.00 0.00
0.00 0.00 0.00 0.00 0.00 0.00 0.00 0.00 0.00 0.00 0.00 0.00 0.00 0.00 0.00 0.00 0.00 0.00 0.01 0.00 0.01 0.01 0.01 0.02 0.01 0.00 0.00 0.00 0.00 0.00 0.00 0.00 0.00 0.00 0.00 0.00 0.00 0.00 0.00 0.00 0.00 0.00 0.00
0.00 0.00 0.00 0.00 0.00 0.00 0.00 0.00 0.00 0.00 0.00 0.00 0.00 0.00 0.00 0.00 0.00 0.00 0.00 0.00 0.00 0.00 0.00 0.00 0.00 0.00 0.00 0.00 0.00 0.00 0.00 0.00 0.00 0.00 0.00 0.00 0.00 0.00 0.00 0.00 0.00 0.00 0.00
0.00 0.00 0.00 0.00 0.00 0.00 0.00 0.00 0.00 0.00 0.00 0.00 0.00 0.00 0.00 0.00 0.00 0.00 0.00 0.00 0.00 0.00 0.00 0.00 0.00 0.00 0.00 0.00 0.00 0.00 0.00 0.00 0.00 0.00 0.00 0.00 0.00 0.00 0.00 0.00 0.00 0.00 0.00
0.00 0.00 0.00 0.00 0.00 0.00 0.00 0.00 0.00 0.00 0.00 0.00 0.00 0.00 0.00 0.00 0.00 0.00 0.00 0.00 0.00 0.00 0.00 0.00 0.01 0.00 0.00 0.00 0.00 0.00 0.00 0.00 0.00 0.00 0.00 0.00 0.00 0.00 0.00 0.00 0.00 0.00 0.00
0.00 0.00 0.00 0.00 0.00 0.00 0.00 0.00 0.00 0.00 0.00 0.00 0.00 0.00 0.00 0.00 0.00 0.00 0.00 0.00 0.00 0.00 0.00 0.02 0.00 0.05 0.00 0.00 0.00 0.00 0.00 0.00 0.00 0.00 0.00 0.00 0.00 0.00 0.00 0.00 0.00 0.00 0.00
0.00 0.00 0.00 0.00 0.00 0.00 0.00 0.00 0.00 0.00 0.00 0.00 0.00 0.00 0.00 0.00 0.00 0.00 0.00 0.00 0.00 0.00 0.00 0.03 0.01 0.02 0.02 0.00 0.00 0.00 0.00 0.00 0.00 0.00 0.00 0.00 0.00 0.00 0.00 0.00 0.00 0.00 0.00
0.00 0.00 0.00 0.00 0.00 0.00 0.00 0.00 0.00 0.00 0.00 0.00 0.00 0.00 0.00 0.00 0.00 0.00 0.00 0.00 0.00 0.00 0.00 0.00 0.01 0.00 0.00 0.00 0.00 0.00 0.00 0.00 0.00 0.00 0.00 0.00 0.00 0.00 0.00 0.00 0.00 0.00 0.00
0.00 0.00 0.00 0.00 0.00 0.00 0.00 0.00 0.00 0.00 0.00 0.00 0.00 0.00 0.00 0.00 0.00 0.00 0.00 0.01 0.00 0.00 0.00 0.00 0.05 0.01 0.01 0.01 0.00 0.00 0.00 0.00 0.00 0.00 0.00 0.00 0.00 0.00 0.00 0.00 0.00 0.00 0.00
0.00 0.00 0.00 0.00 0.00 0.00 0.00 0.00 0.03 0.00 0.00 0.00 0.00 0.00 0.00 0.00 0.00 0.05 0.08 0.09 0.07 0.04 0.05 0.08 0.17 0.11 0.03 0.03 0.14 0.01 0.00 0.00 0.00 0.00 0.00 0.00 0.00 0.00 0.00 0.00 0.00 0.00 0.00
0.00 0.00 0.00 0.00 0.00 0.00 0.00 0.00 0.00 0.00 0.00 0.00 0.00 0.00 0.00 0.05 0.07 0.12 0.14 0.33 0.44 0.37 0.16 0.21 0.20 0.20 0.10 0.12 0.25 0.16 0.02 0.00 0.00 0.00 0.00 0.00 0.00 0.00 0.00 0.00 0.00 0.00 0.00
0.00 0.00 0.00 0.00 0.00 0.00 0.00 0.00 0.00 0.00 0.00 0.00 0.03 0.05 0.03 0.03 0.08 0.08 0.10 0.12 0.16 0.22 0.08 0.17 0.24 0.26 0.18 0.07 0.16 0.12 0.03 0.00 0.00 0.00 0.00 0.00 0.00 0.00 0.00 0.00 0.00 0.00 0.00
0.00 0.00 0.00 0.00 0.00 0.00 0.00 0.00 0.00 0.00 0.00 0.00 0.02 0.03 0.01 0.01 0.02 0.03 0.04 0.06 0.04 0.02 0.06 0.03 0.16 0.31 0.41 0.16 0.13 0.04 0.02 0.01 0.00 0.00 0.00 0.00 0.00 0.00 0.00 0.00 0.00 0.00 0.00
0.00 0.00 0.00 0.00 0.00 0.00 0.00 0.00 0.00 0.00 0.00 0.00 0.00 0.00 0.00 0.01 0.02 0.02 0.04 0.06 0.06 0.07 0.05 0.05 0.04 0.05 0.16 0.39 0.32 0.18 0.14 0.10 0.09 0.03 0.01 0.00 0.00 0.00 0.00 0.00 0.00 0.00 0.00
0.00 0.00 0.00 0.00 0.00 0.00 0.00 0.00 0.00 0.00 0.00 0.00 0.00 0.00 0.00 0.00 0.00 0.00 0.00 0.02 0.04 0.03 0.04 0.05 0.05 0.07 0.07 0.12 0.16 0.24 0.24 0.14 0.06 0.06 0.01 0.00 0.00 0.00 0.00 0.00 0.00 0.00 0.00
MSLP
1014.94 1015.12 1015.12 1015.24 1015.27 1015.27 1015.48 1015.61 1015.70 1015.91 1016.09 1016.29 1016.48 1016.54 1016.59 1016.65 1016.71 1016.83 1016.97 1017.08 1017.16 1017.16 1017.35 1017.42 1017.64 1017.79 1017.77 1017.80 1017.88 1018.04 1018.18 1018.36 1018.43 1018.35 1018.39 1018.51 1018.65 1018.65 1018.60 1018.49 1018.16 1018.51 1019.14
1014.74 1015.14 1015.28 1015.32 1015.59 1015.87 1015.78 1015.80 1016.07 1016.27 1016.46 1016.65 1016.81 1016.89 1017.03 1016.97 1017.07 1017.18 1017.34 1017.36 1017.53 1017.62 1017.65 1017.80 1017.92 1018.08 1018.16 1018.30 1018.35 1018.39 1018.42 1018.61 1018.67 1018.57 1018.55 1018.64 1018.89 1019.00 1019.06 1018.89 1018.65 1019.22 1019.39
1014.72 1014.93 1015.39 1015.72 1015.89 1016.30 1016.22 1016.28 1016.42 1016.62 1016.84 1017.04 1017.26 1017.32 1017.30 1017.36 1017.42 1017.64 1017.65 1017.69 1017.82 1018.07 1018.10 1018.21 1018.30 1018.44 1018.62 1018.73 1018.74 1018.83 1018.79 1018.83 1018.74 1018.66 1018.30 1017.75 1018.73 1019.22 1019.33 1019.35 1019.54 1019.70 1019.71
1013.77 1014.22 1014.76 1015.92 1016.22 1016.42 1016.62 1016.63 1016.80 1016.95 1017.10 1017.30 1017.51 1017.60 1017.65 1017.72 1017.98 1017.93 1018.03 1018.14 1018.24 1018.33 1018.49 1018.60 1018.65 1018.77 1018.86 1019.02 1019.01 1019.09 1019.15 1018.92 1018.86 1018.79 1018.23 1017.35 1018.28 1019.53 1019.61 1019.72 1019.86 1020.06 1020.11
1013.45 1013.76 1015.06 1016.07 1016.35 1016.70 1016.92 1017.06 1017.19 1017.38 1017.53 1017.72 1017.80 1017.89 1017.99 1018.01 1018.10 1018.29 1018.46 1018.41 1018.56 1018.68 1018.80 1018.87 1018.87 1019.01 1019.12 1019.27 1019.39 1019.52 1019.34 1019.02 1018.73 1018.35 1017.51 1017.71 1018.30 1019.78 1019.87 1019.91 1020.09 1020.22 1020.30
1013.36 1013.95 1015.55 1016.11 1016.49 1016.85 1017.14 1017.34 1017.51 1017.65 1017.86 1017.96 1018.09 1018.26 1018.34 1018.58 1018.39 1018.59 1018.70 1018.85 1018.89 1019.01 1019.09 1019.12 1019.17 1019.27 1019.44 1019.56 1019.61 1019.62 1019.54 1019.26 1018.97 1018.01 1018.27 1018.38 1018.84 1020.01 1020.17 1020.12 1020.20 1020.38 1020.53
1014.19 1014.19 1015.65 1016.47 1016.76 1016.93 1017.25 1017.55 1017.72 1017.87 1018.07 1018.22 1018.21 1018.44 1018.59 1018.68 1018.65 1018.81 1018.92 1019.00 1019.07 1019.22 1019.29 1019.29 1019.40 1019.52 1019.60 1019.66 1019.75 1019.72 1019.60 1019.19 1018.53 1017.83 1018.28 1018.18 1019.61 1020.21 1020.32 1020.40 1020.44 1020.55 1020.68
1014.09 1014.60 1015.80 1016.76 1017.10 1017.46 1017.55 1017.68 1017.90 1018.07 1018.28 1018.35 1018.47 1018.59 1018.79 1018.84 1018.90 1019.03 1019.09 1019.20 1019.30 1019.37 1019.39 1019.47 1019.60 1019.72 1019.74 1019.76 1019.80 1019.73 1019.59 1019.23 1018.20 1018.04 1018.36 1018.74 1020.03 1020.40 1020.53 1020.62 1020.65 1020.66 1020.74
1014.00 1014.81 1015.49 1016.30 1017.07 1017.52 1017.83 1018.03 1018.22 1018.40 1018.56 1018.56 1018.72 1018.77 1018.88 1018.92 1019.01 1019.07 1019.14 1019.28 1019.43 1019.47 1019.54 1019.61 1019.74 1019.80 1019.85 1019.80 1019.81 1019.71 1019.45 1018.89 1018.39 1017.89 1017.67 1018.65 1019.95 1020.30 1020.56 1020.68 1020.78 1020.71 1020.74
1014.26 1014.48 1015.49 1016.06 1016.63 1017.06 1017.65 1018.16 1018.39 1018.45 1018.57 1018.76 1018.87 1018.98 1018.93 1018.83 1018.84 1018.97 1019.16 1019.34 1019.42 1019.47 1019.57 1019.67 1019.77 1019.78 1019.83 1019.83 1019.79 1019.64 1019.22 1018.92 1018.26 1017.37 1017.67 1018.92 1019.76 1020.15 1020.36 1020.59 1020.71 1020.77 1020.77
1014.65 1014.91 1015.24 1016.01 1016.78 1017.18 1017.30 1017.97 1018.39 1018.51 1018.61 1018.72 1018.81 1018.85 1018.63 1017.94 1017.81 1018.49 1018.95 1019.21 1019.35 1019.40 1019.42 1019.48 1019.59 1019.66 1019.69 1019.54 1019.49 1019.35 1019.07 1018.16 1018.21 1016.81 1017.79 1018.91 1019.49 1019.94 1020.21 1020.33 1020.53 1020.66 1020.71
1014.28 1015.01 1015.56 1015.81 1016.17 1016.51 1016.62 1017.80 1017.77 1017.88 1018.03 1018.12 1018.12 1018.36 1018.05 1017.38 1017.83 1018.30 1018.57 1018.83 1018.98 1019.05 1019.12 1019.27 1019.34 1019.28 1019.29 1018.21 1018.27 1018.86 1018.59 1017.98 1016.95 1016.95 1017.55 1018.59 1019.22 1019.70 1019.98 1020.12 1020.26 1020.42 1020.54
1013.51 1014.03 1014.80 1015.72 1015.91 1015.72 1015.98 1016.75 1016.88 1017.08 1017.23 1017.65 1017.94 1018.02 1017.77 1017.57 1017.98 1018.02 1018.16 1017.80 1018.28 1018.57 1018.09 1018.72 1018.71 1018.08 1017.79 1017.72 1017.76 1017.68 1017.86 1017.46 1016.76 1016.82 1017.82 1018.32 1018.89 1019.31 1019.61 1019.81 1019.93 1020.09 1020.23
1013.36 1013.97 1014.70 1015.52 1015.96 1015.50 1016.06 1016.05 1016.07 1016.20 1016.78 1017.13 1017.48 1018.07 1018.27 1018.06 1018.03 1018.25 1017.53 1017.16 1017.60 1017.28 1017.28 1017.57 1017.45 1017.69 1018.32 1018.28 1018.06 1017.97 1017.83 1017.21 1016.68 1016.64 1017.64 1018.34 1018.51 1018.83 1019.19 1019.40 1019.47 1019.65 1019.84
1013.68 1014.22 1014.64 1015.39 1016.36 1015.93 1016.22 1015.94 1016.00 1016.18 1016.47 1016.49 1016.99 1017.51 1018.05 1017.71 1017.67 1017.78 1017.85 1017.76 1017.24 1017.12 1017.77 1017.54 1017.60 1017.77 1017.89 1018.42 1018.16 1017.96 1017.77 1017.35 1016.75 1016.73 1017.57 1018.07 1018.32 1018.34 1018.67 1018.93 1019.07 1019.13 1019.33
1013.71 1014.33 1014.94 1015.59 1016.01 1016.32 1016.58 1016.43 1016.63 1016.36 1016.07 1016.57 1016.26 1016.60 1017.74 1017.88 1017.59 1017.38 1017.39 1017.47 1017.30 1017.29 1017.07 1017.45 1017.62 1017.45 1017.47 1017.66 1018.01 1017.64 1017.58 1017.37 1017.03 1016.82 1016.77 1017.48 1017.79 1017.83 1017.99 1018.41 1018.60 1018.68 1018.79
1013.77 1014.29 1014.77 1015.38 1015.80 1016.41 1016.50 1016.74 1016.81 1016.21 1016.47 1016.17 1016.21 1016.63 1017.04 1017.45 1017.51 1017.78 1017.26 1016.94 1016.84 1017.28 1017.41 1017.33 1017.75 1017.73 1017.54 1017.36 1017.72 1017.49 1017.12 1017.04 1016.86 1016.77 1016.84 1017.00 1016.98 1017.29 1017.23 1017.59 1018.00 1018.17 1018.36
1013.47 1014.26 1014.72 1015.07 1015.56 1016.15 1016.62 1016.57 1016.62 1016.19 1016.20 1015.98 1015.93 1016.01 1016.63 1017.14 1017.38 1017.44 1016.99 1016.62 1016.34 1016.48 1016.84 1016.73 1017.12 1017.34 1017.24 1017.11 1017.06 1017.15 1016.76 1016.50 1016.30 1016.35 1016.50 1016.15 1016.11 1015.98 1016.87 1016.83 1016.99 1017.30 1017.66
1013.39 1014.26 1014.79 1015.15 1015.48 1015.94 1016.31 1016.35 1016.37 1016.32 1016.47 1016.28 1015.98 1015.95 1016.17 1016.67 1016.92 1017.09 1016.80 1016.39 1016.26 1016.21 1016.11 1016.44 1016.45 1016.46 1016.12 1016.13 1015.98 1016.20 1016.57 1016.44 1015.96 1015.54 1015.62 1015.70 1015.72 1015.87 1015.71 1016.02 1016.40 1016.64 1016.86
1013.25 1014.01 1014.61 1015.10 1015.60 1015.86 1015.96 1016.33 1016.03 1016.10 1015.95 1015.92 1015.92 1015.88 1016.03 1016.23 1016.45 1016.62 1016.45 1016.41 1016.39 1016.32 1016.01 1015.62 1015.86 1015.78 1015.77 1015.95 1015.99 1015.38 1015.68 1016.02 1015.51 1015.10 1015.07 1015.03 1014.90 1014.97 1015.29 1015.00 1015.70 1016.08 1016.16
1012.78 1013.56 1014.24 1014.74 1015.18 1015.71 1016.01 1015.97 1016.05 1015.71 1015.66 1015.43 1015.32 1015.52 1015.94 1016.17 1016.27 1016.25 1016.62 1016.23 1015.99 1016.16 1015.98 1015.86 1015.68 1016.20 1016.07 1015.84 1015.92 1015.76 1014.89 1014.99 1014.92 1014.34 1014.13 1014.15 1014.10 1014.16 1014.36 1014.34 1014.48 1014.51 1014.49
1012.36 1013.07 1013.78 1014.31 1014.82 1015.50 1015.49 1015.51 1015.34 1015.36 1015.07 1015.43 1015.26 1015.40 1015.42 1015.68 1016.11 1016.23 1016.24 1016.22 1016.55 1016.41 1015.65 1016.66 1015.88 1016.03 1015.80 1015.48 1015.53 1015.70 1015.24 1014.21 1013.65 1013.10 1012.94 1013.01 1013.08 1013.18 1013.33 1013.53 1013.67 1013.98 1014.07
1011.73 1012.57 1013.22 1013.92 1014.33 1014.90 1015.07 1015.00 1015.30 1015.57 1015.44 1015.02 1014.90 1015.30 1015.48 1015.27 1015.40 1015.79 1015.75 1015.60 1015.71 1016.01 1016.23 1015.83 1015.29 1015.45 1015.30 1015.22 1014.75 1014.98 1014.42 1013.16 1012.20 1011.78 1011.62 1011.78 1012.11 1012.51 1012.47 1012.50 1012.67 1012.94 1013.30
1010.90 1011.71 1012.61 1013.42 1013.96 1014.36 1014.72 1014.80 1014.71 1014.66 1014.48 1014.24 1014.57 1014.77 1015.06 1014.62 1014.60 1014.54 1014.72 1014.83 1014.95 1014.88 1014.79 1014.68 1014.48 1014.50 1014.71 1014.99 1014.85 1013.54 1013.84 1013.50 1012.84 1011.97 1011.05 1011.04 1011.49 1012.02 1012.10 1011.96 1011.82 1011.78 1012.14
1010.15 1010.84 1011.79 1012.94 1013.62 1013.90 1014.28 1014.71 1014.51 1014.64 1014.11 1013.75 1014.17 1014.38 1014.29 1014.23 1014.00 1014.21 1013.97 1013.92 1014.12 1014.30 1014.40 1014.30 1014.12 1013.93 1013.65 1013.72 1013.82 1013.85 1012.88 1013.21 1013.45 1013.27 1011.81 1010.78 1010.33 1010.57 1010.92 1011.27 1011.40 1011.21 1011.21
1009.63 1010.37 1011.17 1012.45 1013.30 1013.79 1014.12 1014.38 1014.61 1014.73 1014.75 1014.58 1014.61 1014.73 1014.00 1013.80 1013.66 1013.45 1013.32 1013.60 1013.74 1013.84 1013.95 1013.80 1013.68 1013.57 1013.48 1013.21 1013.04 1013.01 1012.98 1013.03 1012.48 1012.47 1011.88 1011.04 1010.08 1009.34 1009.72 1010.16 1010.33 1010.41 1010.40
Thickness
5770 5770 5771 5770 5769 5769 5768 5768 5768 5768 5768 5767 5766 5766 5768 5769 5770 5769 5769 5769 5769 5769 5768 5769 5767 5768 5768 5768 5768 5766 5765 5764 5762 5762 5762 5761 5760 5760 5760 5760 5762 5757 5752
5775 5772 5771 5769 5769 5766 5765 5765 5763 5763 5764 5765 5765 5766 5766 5767 5768 5767 5767 5768 5768 5768 5767 5767 5766 5766 5766 5765 5766 5765 5764 5763 5763 5762 5762 5762 5760 5759 5759 5759 5760 5754 5751
5778 5774 5771 5770 5768 5765 5765 5765 5763 5762 5762 5763 5763 5764 5765 5766 5766 5765 5765 5766 5767 5766 5765 5764 5764 5765 5764 5763 5764 5763 5763 5763 5763 5764 5766 5769 5761 5759 5758 5758 5755 5752 5750
5785 5782 5778 5769 5767 5766 5764 5764 5764 5763 5762 5763 5762 5763 5763 5763 5762 5762 5764 5764 5764 5764 5764 5763 5763 5762 5763 5762 5762 5762 5761 5763 5764 5765 5768 5774 5765 5757 5757 5757 5754 5751 5749
5790 5788 5778 5770 5768 5765 5764 5763 5762 5762 5761 5761 5761 5762 5762 5762 5762 5761 5760 5762 5761 5761 5761 5761 5762 5761 5761 5760 5759 5760 5761 5763 5765 5769 5773 5772 5766 5755 5755 5755 5754 5752 5750
5793 5787 5775 5771 5768 5766 5764 5762 5762 5761 5761 5761 5761 5760 5761 5760 5761 5760 5759 5759 5759 5759 5759 5759 5760 5760 5759 5759 5758 5759 5761 5762 5764 5770 5768 5768 5763 5755 5753 5754 5754 5752 5750
5787 5786 5775 5769 5768 5766 5764 5762 5761 5760 5760 5760 5761 5761 5757 5757 5759 5758 5757 5758 5758 5757 5758 5758 5758 5758 5758 5758 5758 5758 5761 5764 5768 5772 5769 5770 5759 5754 5753 5753 5753 5752 5751
5789 5784 5774 5767 5765 5763 5763 5762 5761 5760 5759 5759 5759 5759 5757 5758 5758 5757 5757 5757 5757 5758 5758 5758 5757 5757 5758 5758 5758 5758 5760 5764 5771 5771 5769 5767 5758 5754 5753 5752 5752 5752 5752
5790 5783 5778 5771 5766 5764 5762 5761 5759 5758 5758 5758 5757 5757 5758 5758 5758 5758 5758 5757 5756 5756 5757 5757 5756 5757 5757 5758 5758 5759 5761 5767 5770 5773 5775 5768 5760 5757 5754 5753 5752 5753 5753
5791 5788 5780 5775 5771 5768 5765 5761 5760 5759 5759 5758 5758 5758 5759 5760 5761 5760 5759 5757 5757 5757 5756 5756 5756 5756 5757 5757 5758 5760 5762 5766 5772 5778 5775 5767 5762 5759 5756 5755 5754 5754 5754
5789 5788 5785 5778 5772 5769 5768 5764 5761 5760 5760 5760 5759 5760 5763 5767 5769 5764 5761 5758 5757 5757 5757 5758 5757 5757 5758 5759 5760 5761 5764 5770 5772 5782 5775 5768 5763 5760 5758 5757 5756 5755 5755
5790 5788 5786 5783 5780 5777 5775 5766 5766 5765 5765 5764 5764 5763 5766 5772 5768 5765 5762 5760 5759 5759 5759 5758 5759 5759 5760 5767 5768 5765 5766 5772 5780 5781 5777 5771 5766 5762 5760 5759 5758 5757 5756
5800 5799 5794 5786 5783 5785 5782 5775 5774 5772 5771 5768 5766 5766 5768 5770 5766 5765 5765 5767 5763 5761 5764 5759 5761 5767 5769 5770 5769 5771 5770 5774 5781 5781 5776 5772 5768 5765 5763 5762 5761 5760 5758
5802 5799 5796 5788 5784 5788 5783 5783 5782 5780 5775 5773 5770 5766 5764 5766 5766 5763 5767 5770 5766 5767 5767 5765 5767 5766 5762 5764 5766 5767 5768 5775 5780 5782 5775 5771 5770 5768 5766 5765 5765 5764 5762
5800 5799 5797 5791 5783 5785 5783 5785 5784 5782 5779 5778 5774 5770 5765 5767 5767 5765 5763 5763 5766 5765 5759 5763 5764 5762 5762 5760 5762 5765 5768 5772 5777 5779 5773 5771 5771 5771 5769 5767 5767 5767 5765
5804 5799 5797 5792 5787 5784 5781 5782 5779 5781 5783 5778 5780 5777 5768 5765 5767 5767 5765 5763 5763 5760 5763 5760 5759 5762 5763 5762 5760 5766 5767 5770 5773 5776 5777 5772 5773 5774 5773 5770 5769 5769 5768
5805 5803 5799 5795 5790 5785 5783 5781 5779 5783 5780 5782 5780 5776 5771 5767 5766 5763 5766 5767 5766 5762 5760 5759 5756 5757 5759 5762 5760 5763 5767 5770 5772 5773 5774 5774 5775 5775 5776 5774 5771 5771 5770
5810 5803 5801 5799 5794 5788 5784 5782 5781 5783 5782 5783 5782 5781 5775 5769 5766 5764 5767 5769 5769 5766 5763 5763 5761 5760 5761 5762 5761 5761 5766 5770 5773 5773 5773 5777 5778 5780 5776 5777 5777 5775 5773
5812 5805 5800 5798 5794 5790 5786 5784 5783 5782 5780 5780 5781 5780 5777 5772 5770 5767 5768 5769 5769 5768 5767 5763 5763 5765 5766 5766 5769 5768 5764 5767 5772 5776 5776 5775 5777 5778 5780 5781 5780 5779 5777
5814 5808 5803 5799 5795 5792 5790 5785 5786 5785 5784 5782 5780 5779 5777 5774 5772 5769 5768 5766 5764 5764 5765 5768 5764 5767 5766 5764 5763 5769 5767 5765 5771 5776 5777 5777 5779 5780 5779 5783 5780 5778 5780
5818 5811 5806 5801 5798 5793 5788 5786 5784 5784 5785 5787 5786 5782 5777 5775 5773 5771 5765 5766 5764 5763 5764 5764 5764 5757 5758 5763 5757 5757 5767 5769 5770 5778 5782 5782 5783 5782 5782 5784 5784 5785 5787
5819 5814 5808 5804 5800 5794 5794 5792 5792 5790 5792 5787 5787 5783 5781 5777 5772 5769 5767 5766 5759 5758 5732 5752 5761 5754 5757 5762 5752 5747 5742 5760 5773 5780 5785 5786 5787 5786 5786 5785 5786 5785 5785
5821 5816 5811 5807 5804 5800 5798 5798 5793 5789 5787 5787 5787 5782 5779 5778 5776 5771 5768 5766 5764 5757 5755 5758 5762 5756 5750 5753 5759 5751 5746 5752 5770 5783 5786 5788 5787 5785 5787 5788 5789 5789 5786
5828 5825 5817 5810 5805 5802 5798 5794 5791 5788 5785 5790 5786 5784 5779 5779 5777 5776 5773 5769 5767 5767 5766 5766 5768 5764 5755 5742 5746 5762 5763 5763 5756 5759 5782 5784 5784 5780 5783 5787 5791 5792 5791
5834 5828 5821 5812 5806 5804 5800 5794 5792 5786 5790 5792 5786 5781 5780 5778 5777 5773 5773 5773 5770 5766 5764 5764 5764 5764 5765 5759 5752 5749 5760 5759 5756 5749 5754 5769 5783 5785 5785 5785 5787 5790 5791
5835 5829 5823 5810 5803 5800 5797 5794 5788 5783 5780 5778 5775 5772 5777 5777 5775 5774 5773 5768 5764 5763 5760 5760 5760 5760 5759 5760 5760 5756 5751 5748 5755 5752 5752 5761 5769 5783 5786 5786 5788 5789 5790